www.pogodaiklimat.ru
Время
и дата
00:51 18.07
01:30 18.07
01:51 18.07
02:42 18.07
02:51 18.07
03:06 18.07
03:51 18.07
04:41 18.07
04:51 18.07
05:51 18.07
06:51 18.07
07:28 18.07
07:51 18.07
08:44 18.07
08:51 18.07
09:51 18.07
10:51 18.07
11:51 18.07
12:51 18.07
13:51 18.07
14:51 18.07
15:51 18.07
16:51 18.07
17:51 18.07
18:51 18.07
19:51 18.07
20:51 18.07
21:51 18.07
22:51 18.07
23:51 18.07
00:51 19.07
01:51 19.07
02:51 19.07
03:51 19.07
04:51 19.07
05:51 19.07
06:51 19.07
07:51 19.07
08:51 19.07
09:51 19.07
10:51 19.07
11:51 19.07
12:51 19.07
13:51 19.07
14:51 19.07
15:51 19.07
16:51 19.07
17:51 19.07
Ветер
(напр.,м/с)
Видим. Явления Облачность Т
(С)
Тd
(С)
f
(%)
Тe
(С)
Тes
(С)
Комфортность P
(гПа)
Po
(гПа)
Тmin
(С)
Tmax
(С)
R
(мм)
R24
(мм)
S
(см)
Ю 2 8 км дымка 10/10 90 м +21.1 +19.4 90 +26 +26 душно 1014.2 971.1 +21.1 +23.3
Ю 2 800 м дымка 10/10 60 м +21.7 +20.0 90 +27 +27 душно 971.1
штиль 0 800 м туман 10/10 30 м +21.7 +20.0 90 +27 +27 душно 1014.3 971.1
СЗ 2 2 км дымка 10/10 90 м +21.7 +20.0 90 +27 +27 душно 970.7
СЗ 2 2 км дымка 10/10 90 м +21.7 +19.4 87 +27 +27 душно 1013.9 970.7
СЗ 2 4 км дымка 10/10 90 м +21.7 +20.0 90 +27 +27 душно 970.7
С 3 6 км дымка 8/8 90 м +21.7 +20.0 90 +27 +27 душно 1014.4 971.1
нст 3 8 км дымка 10/8 90 m
[Ci]
+21.1 +18.9 87 +25 +25 комфорт 971.4
С 3 11 км 10/8 90 m
[Ci]
+21.1 +18.3 84 +25 +25 комфорт 1015.1 971.7
С 4 11 км 8/2 270 m
[Ac Ci]
+21.1 +17.8 81 +25 +25 комфорт 1015.6 972.3
С 5 16 км 10/5 270 m
[Ci]
+20.6 +17.8 84 +24 +24 комфорт 1016.3 972.7 +20.6 +21.7 16.3
С 4 16 км 10/8 270 m
[Ci]
+21.1 +17.2 78 +25 +25 комфорт 973.3
С 5 16 км 10/8 330 m
[Ac Ci]
+21.7 +16.7 73 +26 +26 душно 1017.1 973.6
С 5 16 км 10/8 360 m
[Ci]
+21.1 +16.7 76 +25 +25 комфорт 973.6
С 4 16 км 10/8 360 m
[Ci]
+21.1 +16.1 73 +24 +25 комфорт 1017.3 973.6
С 5 16 км 10/8
[Ci]
+22.2 +16.1 68 +26 +27 душно 1017.9 974.3
С 4 16 км 10/5 660 m
[Ci]
+24.4 +15.6 58 +27 +31 жарко 1017.9 974.3
С 3 16 км 10/5 960 m
[Ci]
+24.4 +15.0 56 +27 +33 жарко 1017.8 974.3
СЗ 3
{8}
16 км 8/5 1230 m
[Ac Ci]
+25.6 +13.3 46 +28 +33 жарко 1017.7 974.3 +20.6 +26.1
СЗ 5
{11}
16 км 8/8 1290 m
[Ci]
+26.1 +13.9 47 +28 +30 жарко 1017.6 974.3
СЗ 5
{8}
16 км 5/5 1410 m
[Ci]
+26.7 +13.3 44 +29 +33 жарко 1017.4 974.0
СЗ 5
{8}
16 км 5/5 1650 m
[Ac]
+27.2 +12.8 41 +29 +32 жарко 1017.1 973.6
С 7
{13}
16 км 5/5 1500 m
[Ac]
+26.7 +13.3 44 +29 +30 жарко 1017.0 973.6
С 6 16 км 5/2 1440 m
[Ac]
+25.6 +12.8 45 +27 +29 жарко 1017.4 974.0
С 6 16 км 2/2 1380 m
[Ac]
+23.9 +12.8 50 +26 +26 жарко 1018.3 974.6 +23.9 +27.2
С 6
{13}
16 км 2/0 2250 m
[Ac Ci]
+22.2 +11.1 49 +24 +24 комфорт 1018.8 975.3
С 6 16 км 2/0 7500 m
[Ci]
+21.7 +11.1 51 +24 +24 комфорт 1019.4 975.9
С 4 16 км 2/0 7500 m
[Ci]
+20.6 +11.7 57 +23 +23 комфорт 1020.1 976.6
С 4 16 км 2/0 7500 m
[Ci]
+19.4 +11.7 61 +21 +21 комфорт 1020.5 976.9
С 3 16 км 2/0 7500 m
[Ci]
+18.3 +12.2 68 +19 +19 1021.0 977.2
С 2 16 км 2/0 7500 m
[Ci]
+17.8 +12.2 70 +18 +18 1020.7 976.9 +17.8 +23.9
СЗ 2 16 км 2/0 7500 m
[Ci]
+16.1 +12.2 78 +16 +16 1020.8 976.9
СЗ 2 16 км ясно +15.6 +12.2 80 +16 +16 1020.8 976.9
СЗ 2 16 км 2/0 7500 m
[Ci]
+15.6 +12.2 80 +16 +16 1020.9 977.2
штиль 0 16 км ясно +15.0 +11.7 81 +15 +15 1021.2 977.2
С 2 16 км 2/2 1650 m
[Ci]
+16.1 +12.8 81 +16 +16 1021.7 977.9
нст 2 16 км 2/2 1650 м +17.2 +13.3 78 +18 +18 1022.4 978.5 +13.9 +17.8
СВ 2 16 км ясно +18.9 +13.3 70 +20 +23 1022.8 978.8
В 3 16 км 2/2 900 m
[Ci]
+21.1 +12.8 59 +23 +28 комфорт 1022.7 978.8
штиль 0 16 км 5/5 900 м +22.8 +11.7 50 +25 +32 комфорт 1022.6 978.8
З 2 16 км 5/5 1050 m
[Ci]
+24.4 +11.7 45 +26 +33 жарко 1022.3 978.5
СЗ 2 16 км 5/5 1200 м +25.6 +11.7 42 +27 +36 жарко 1022.0 978.2
СВ 2 16 км 2/2 1350 м +26.7 +10.0 35 +27 +43 жарко 1021.5 977.9 +17.2 +26.7
нст 2 16 км 2/2 1500 м +26.7 +10.0 35 +27 +43 жарко 1021.2 977.5
штиль 0 16 км 2/2 1500 m
[Ci]
+27.2 +10.0 34 +28 +46 жарко 1020.7 976.9
СЗ 3 16 км 2/2 1500 m
[Ci]
+27.8 +10.6 34 +28 +37 жарко 1019.9 976.2
СЗ 3 16 км 5/2 1800 m
[Ci]
+28.3 +10.0 32 +29 +34 жарко 1019.4 975.9
нст 3 16 км 5/2 1800 m
[Ci]
+28.3 +10.0 32 +29 +32 жарко 1019.3 975.6
Местоположение метеостанции Pittsburgh International Airport: широта 40.4847 долгота -80.2144 высота над уровнем моря 367 м.
В архиве по умолчанию представлена погода в Питтсбурге за последние 1-2 суток. Обновление информации о фактической погоде в базе происходит ежечасно! Архивные данные за месяц целиком и за предыдущие месяцы Вы можете получить, выбрав интересующий диапазон дат из раскрывающегося списка и нажав кнопку "Ввод!".
Внимание! Архив погоды МЕТАР в базе сайта по станциям, не включенным в климатический монитор, хранится не более 60 дней. Нет смысла пытаться выбрать более раннюю дату.
*Определитесь, кто Вы:
Внимание! Время в таблицах - местное (без учета летнего времени). Для получения всемирного времени необходимо вычесть поправку, которая равна -5 ч.
Смотрите также архив погоды в соседних городах и на ближайших метеорологических станциях:
Партнеры нашего сайта:      
Пояснения к столбцам:
  • Ветер - указаны скорость ветра в м/с - средняя за 10 мин, порывы в срок и между сроками (в фигурных скобках) и направление, откуда дует ветер: С - северный,
  • СВ - северо-восточный, В - восточный, ЮВ - юго-восточный, Ю - южный, ЮЗ - юго-западный, З - западный, СЗ - северо-западный.
  • Видимость - горизонтальная дальность видимости в метрах или километрах. При видимости от 1 до 10 км при отсутствии осадков обычно наблюдается дымка, при ухудшении видимости до 1 км и менее - туман. В сухую погоду видимость может ухудшаться дымом, пылью или мглою.
  • Явления - указаны атмосферные явления, наблюдавшиеся в срок или в последний час перед сроком; фигурными скобками обозначены явления, наблюдавшиеся между сроками (за 1-3 часа до срока); квадратными скобками обозначены град или гололедные отложения с указанием их диаметра в мм.
  • Облачность - указаны через наклонную черту общая и нижняя облачность в баллах и высота нижней границы облаков в метрах; квадратными скобками обозначены формы облаков: Ci - перистые, Cs - перисто-слоистые, Cc - перисто-кучевые, Ac - высококучевые, As - высокослоистые, Sc - слоисто-кучевые, Ns - слоисто-дождевые, Cu - кучевые, Cb - кучево-дождевые. Подробнее классификацию облаков см. в Атласе облаков (PDF).
  • T - Температура воздуха - температура, измеренная на высоте 2 м над землей.
  • Td - Температура точки росы - температура, при понижении до которой содержащийся в воздухе водяной пар достигнет насыщения.
  • f - Относительная влажность воздуха - влажноcть воздуха, измеренная на высоте 2 м над землей.
  • Te - Эффективная температура - температура, которую ощущает одетый по сезону человек в тени. Характеристика душности погоды. При расчете учитывается влияние влажности воздуха и скорости ветра на теплоощущения человека.
  • Tes - Эффективная температура на солнце - температура, которую ощущает человек, с поправкой на солнечный нагрев. Характеристика знойности погоды. Зависит от высоты солнца над горизонтом, облачности и скорости ветра. Ночью, в пасмурную погоду, а также при ветре 12 м/с и более поправка равна нулю.
  • P - Атмосферное давление - приведенное к уровню моря атмосферное давление.
  • Po - Атмосферное давление - измеренное на уровне метеостанции атмосферное давление.
  • Tmin - Минимальная температура - минимум температуры воздуха на высоте 2 м над землей.
  • Tmax - Максимальная температура - максимум температуры воздуха на высоте 2 м над землей.
  • R - Количество осадков - Количество выпавших осадков за период времени, мм. При наведении курсора мыши на число - период времени, за который выпало указанное количество осадков.
  • R24 - Количество осадков - Количество выпавших осадков за 24 часа, мм.
  • S - Снежный покров - Высота снежного покрова, см. При наведении курсора мыши на число - состояние снежного покрова и степень покрытия местности в баллах.